Radiation Dose measured at exhaust stack monitor of Fukushima Daiichi Nuclear Power Station
Date,Time,Unit 5 6 shared exhaust cylinders,Wind Direction,Wind Velocity(m/s)
2024/02/17,00:00,3.6,northwest,3.5
2024/02/17,00:10,3.9,northwest,4.1
2024/02/17,00:20,3.6,north-northwest,4.4
2024/02/17,00:30,3.7,north-northwest,3.8
2024/02/17,00:40,3.9,north-northwest,4.0
2024/02/17,00:50,3.8,northwest,4.8
2024/02/17,01:00,3.8,north-northwest,4.8
2024/02/17,01:10,3.7,northwest,5.5
2024/02/17,01:20,3.8,northwest,4.6
2024/02/17,01:30,3.8,northwest,5.0
2024/02/17,01:40,3.6,northwest,5.0
2024/02/17,01:50,3.7,northwest,5.4
2024/02/17,02:00,3.8,north-northwest,5.0
2024/02/17,02:10,3.7,northwest,5.5
2024/02/17,02:20,3.8,northwest,5.3
2024/02/17,02:30,3.5,northwest,5.2
2024/02/17,02:40,3.7,northwest,5.4
2024/02/17,02:50,3.8,northwest,5.7
2024/02/17,03:00,3.6,northwest,5.3
2024/02/17,03:10,3.7,northwest,5.6
2024/02/17,03:20,3.8,northwest,5.4
2024/02/17,03:30,3.7,northwest,6.4
2024/02/17,03:40,3.7,northwest,5.3
2024/02/17,03:50,3.7,northwest,5.5
2024/02/17,04:00,3.7,northwest,5.7
2024/02/17,04:10,3.8,northwest,6.6
2024/02/17,04:20,3.7,northwest,6.0
2024/02/17,04:30,3.7,northwest,6.1
2024/02/17,04:40,3.7,northwest,5.9
2024/02/17,04:50,3.5,northwest,5.3
2024/02/17,05:00,3.8,northwest,5.6
2024/02/17,05:10,3.6,northwest,6.0
2024/02/17,05:20,3.8,northwest,6.4
2024/02/17,05:30,3.7,northwest,6.0
2024/02/17,05:40,3.6,northwest,5.3
2024/02/17,05:50,3.8,northwest,5.4
2024/02/17,06:00,3.8,northwest,5.6
2024/02/17,06:10,4.0,northwest,5.6
2024/02/17,06:20,3.7,northwest,5.6
2024/02/17,06:30,3.8,northwest,5.5
2024/02/17,06:40,3.7,northwest,5.0
2024/02/17,06:50,3.7,northwest,5.6
2024/02/17,07:00,3.7,northwest,6.1
2024/02/17,07:10,3.8,northwest,5.7
2024/02/17,07:20,3.8,northwest,4.7
2024/02/17,07:30,3.7,northwest,5.5
2024/02/17,07:40,3.7,northwest,4.8
2024/02/17,07:50,3.6,northwest,4.5
2024/02/17,08:00,3.7,northwest,5.3
2024/02/17,08:10,3.6,northwest,4.8
2024/02/17,08:20,3.9,northwest,4.9
2024/02/17,08:30,3.9,north-northwest,5.0
2024/02/17,08:40,3.7,north-northwest,4.4
2024/02/17,08:50,3.7,north-northwest,4.6
2024/02/17,09:00,3.8,north-northwest,4.1
2024/02/17,09:10,3.5,north-northwest,3.9
2024/02/17,09:20,3.8,north-northwest,4.7
2024/02/17,09:30,3.8,north,3.9
2024/02/17,09:40,3.6,north,3.9
2024/02/17,09:50,3.7,north-northwest,4.8
2024/02/17,10:00,3.7,north,4.2
2024/02/17,10:10,3.8,north,4.4
2024/02/17,10:20,3.7,north,4.4
2024/02/17,10:30,3.8,north-northeast,4.7
2024/02/17,10:40,3.7,north-northeast,5.5
2024/02/17,10:50,3.7,north,5.3
2024/02/17,11:00,3.7,north-northeast,4.6
2024/02/17,11:10,3.9,north-northeast,5.2
2024/02/17,11:20,3.8,north,5.8
2024/02/17,11:30,3.7,north-northeast,5.0
2024/02/17,11:40,3.7,north-northeast,5.3
2024/02/17,11:50,3.8,north-northeast,4.8
2024/02/17,12:00,3.8,north-northeast,6.0
2024/02/17,12:10,3.7,north-northeast,6.1
2024/02/17,12:20,3.7,north-northeast,4.9
2024/02/17,12:30,3.7,north-northeast,5.3
2024/02/17,12:40,3.8,north-northeast,5.1
2024/02/17,12:50,3.8,north-northeast,4.7
2024/02/17,13:00,3.9,north-northeast,4.7
2024/02/17,13:10,3.7,northeast,3.8
2024/02/17,13:20,3.7,northeast,3.4
2024/02/17,13:30,3.8,northeast,3.3
2024/02/17,13:40,3.9,northeast,2.8
2024/02/17,13:50,3.8,northeast,3.2
2024/02/17,14:00,3.7,north-northeast,2.3
2024/02/17,14:10,3.7,northeast,2.8
2024/02/17,14:20,3.8,north-northeast,2.3
2024/02/17,14:30,3.7,north-northeast,2.6
2024/02/17,14:40,3.8,northeast,2.6
2024/02/17,14:50,3.9,northeast,2.2
2024/02/17,15:00,3.7,northeast,2.5
2024/02/17,15:10,3.5,north-northeast,2.3
2024/02/17,15:20,3.8,east-northeast,1.9
2024/02/17,15:30,3.7,northeast,1.7
2024/02/17,15:40,3.7,north-northeast,2.0
2024/02/17,15:50,3.8,northeast,1.8
2024/02/17,16:00,3.7,north-northeast,2.5
2024/02/17,16:10,3.9,north-northeast,2.5
2024/02/17,16:20,3.8,north-northeast,2.0
2024/02/17,16:30,3.7,north-northeast,1.2
2024/02/17,16:40,3.8,north-northeast,1.1
2024/02/17,16:50,3.8,east-northeast,1.1
2024/02/17,17:00,3.7,-,CALM
2024/02/17,17:10,3.6,south,1.2
2024/02/17,17:20,3.6,south,0.6
2024/02/17,17:30,3.8,south-southwest,0.6
2024/02/17,17:40,3.7,south,1.2
2024/02/17,17:50,3.8,southwest,0.9
2024/02/17,18:00,3.8,southwest,0.8
2024/02/17,18:10,3.6,west-southwest,0.9
2024/02/17,18:20,3.8,west-southwest,1.1
2024/02/17,18:30,3.6,-,CALM
2024/02/17,18:40,3.7,-,CALM
2024/02/17,18:50,3.8,west,1.7
2024/02/17,19:00,3.8,west-northwest,2.0
2024/02/17,19:10,3.7,west,1.5
2024/02/17,19:20,3.6,west-southwest,1.1
2024/02/17,19:30,3.6,west-northwest,1.4
2024/02/17,19:40,3.7,west-northwest,1.9
2024/02/17,19:50,3.8,west-southwest,1.2
2024/02/17,20:00,3.8,west-southwest,1.5
2024/02/17,20:10,3.7,south-southwest,0.9
2024/02/17,20:20,3.6,southwest,1.2
2024/02/17,20:30,3.6,south-southwest,1.1
2024/02/17,20:40,3.9,south-southeast,0.9
2024/02/17,20:50,3.8,-,CALM
2024/02/17,21:00,3.8,-,CALM
2024/02/17,21:10,3.9,west,0.9
2024/02/17,21:20,3.7,-,CALM
2024/02/17,21:30,3.6,-,CALM
2024/02/17,21:40,3.6,west,0.6
2024/02/17,21:50,3.6,west-northwest,0.6
2024/02/17,22:00,3.5,west-northwest,0.8
2024/02/17,22:10,3.7,-,CALM
2024/02/17,22:20,3.7,-,CALM
2024/02/17,22:30,3.7,-,CALM
2024/02/17,22:40,3.8,-,CALM
2024/02/17,22:50,3.8,-,CALM
2024/02/17,23:00,3.8,-,CALM
2024/02/17,23:10,3.7,-,CALM
2024/02/17,23:20,3.6,-,CALM
2024/02/17,23:30,3.7,-,CALM
2024/02/17,23:40,3.8,-,CALM
2024/02/17,23:50,3.8,southwest,0.9
